Simultaneous Nadir Overpasses (SNOs) Predictions

Prediction of SNOs between GOES-16 and NOAA-20 Satellite Orbit:

Table of predicted SNOs for the next 14.0 days since TLE Epoch: 9/11/2020
Index Date Time (GOES-16) GOES-16 Lat,Lon NOAA-20 Lat,Lon Distance(km) Time Diff (sec)
1 09/11/2020 18:26:07 0.04, -75.18 -0.05, -75.70 58.06 80
2 09/12/2020 18:10:01 0.04, -75.19 0.96, -71.16 458.76 80
3 09/14/2020 06:31:48 -0.05, -75.17 0.23, -76.43 142.73 80
4 09/15/2020 06:10:22 -0.05, -75.18 -0.77, -71.89 374.27 80
5 09/16/2020 18:32:18 0.05, -75.20 -0.42, -77.19 227.54 80
6 09/17/2020 18:16:13 0.05, -75.21 0.65, -72.67 290.04 80
7 09/19/2020 06:37:59 -0.05, -75.21 0.54, -77.93 310.11 80
8 09/20/2020 06:16:34 -0.05, -75.22 -0.46, -73.40 207.62 80
9 09/21/2020 18:38:29 0.06, -75.25 -0.72, -78.70 393.44 80
10 09/22/2020 18:22:24 0.06, -75.26 0.28, -74.16 124.53 80
11 09/24/2020 06:44:11 -0.06, -75.27 0.85, -79.44 474.92 80
12 09/25/2020 06:22:46 -0.07, -75.28 -0.16, -74.90 43.18 80
